EW2575 Weather Reports


Display with metric or nautical units.
time (UTC)temp
F
wind
direction
speed
MPH
gust
MPH
rain 1hr
in
rain 24hr
in
rain mn
in
humidity
%
barometer
mb
20260504223515 61 213 1.0 3.0 0.00 0.00 0.00 94 1016.9
20260504223015 61 188 1.0 4.0 0.00 0.00 0.00 94 1016.9
20260504222514 61 210 1.0 4.0 0.00 0.00 0.00 94 1016.9
20260504222019 61 222 2.0 5.0 0.00 0.00 0.00 94 1016.9
20260504221514 61 244 4.0 5.0 0.00 0.00 0.00 93 1016.8
20260504221014 61 239 2.0 4.0 0.00 0.00 0.00 93 1016.8
20260504220513 61 219 2.0 5.0 0.00 0.00 0.00 93 1016.8
20260504220016 61 180 2.0 5.0 0.00 0.00 0.00 93 1016.7
20260504215514 61 180 1.0 4.0 0.00 0.00 0.00 93 1016.7
20260504215014 61 182 3.0 5.0 0.00 0.00 0.00 93 1016.5
20260504214520 61 199 3.0 5.0 0.00 0.00 0.00 93 1016.6
20260504214017 61 168 3.0 6.0 0.00 0.00 0.00 93 1016.6
20260504213513 61 141 3.0 6.0 0.00 0.00 0.00 93 1016.6
20260504213012 62 170 3.0 8.0 0.00 0.00 0.00 92 1016.5
20260504212512 62 219 4.0 8.0 0.00 0.00 0.00 92 1016.5
20260504212013 62 212 2.0 6.0 0.00 0.00 0.00 92 1016.5
20260504211523 62 172 2.0 6.0 0.00 0.00 0.00 92 1016.4
20260504211012 62 159 2.0 5.0 0.00 0.00 0.00 91 1016.5
20260504210511 62 149 2.0 5.0 0.00 0.00 0.00 91 1016.5
20260504210011 63 168 3.0 5.0 0.00 0.00 0.00 90 1016.5
20260504205514 63 242 2.0 4.0 0.00 0.00 0.00 90 1016.6
20260504205011 63 247 2.0 4.0 0.00 0.00 0.00 89 1016.5
20260504204517 63 271 2.0 4.0 0.00 0.00 0.00 89 1016.4
20260504204010 63 122 1.0 4.0 0.00 0.00 0.00 90 1016.3
20260504203513 63 114 2.0 4.0 0.00 0.00 0.00 90 1016.3
20260504203012 63 150 3.0 5.0 0.00 0.00 0.00 90 1016.2
20260504202510 63 146 1.0 3.0 0.00 0.00 0.00 89 1016.2
20260504202009 63 200 1.0 5.0 0.00 0.00 0.00 89 1016.3
20260504201510 63 192 2.0 5.0 0.00 0.00 0.00 89 1016.2
20260504201009 63 207 2.0 5.0 0.00 0.00 0.00 88 1016.2
20260504200509 63 183 3.0 6.0 0.00 0.00 0.00 88 1016.0
20260504200009 63 184 4.0 5.0 0.00 0.00 0.00 88 1015.9
20260504195508 63 161 2.0 4.0 0.00 0.00 0.00 87 1015.8
20260504195008 64 167 3.0 5.0 0.00 0.00 0.00 86 1015.8
20260504194508 64 281 2.0 4.0 0.00 0.00 0.00 85 1015.9
20260504194008 64 281 2.0 7.0 0.00 0.00 0.00 84 1015.8
20260504193508 65 281 3.0 7.0 0.00 0.00 0.00 83 1015.6
20260504193018 66 294 3.0 6.0 0.00 0.00 0.00 82 1015.5
20260504192507 66 331 1.0 5.0 0.00 0.00 0.00 82 1015.3
20260504192007 66 292 3.0 6.0 0.00 0.00 0.00 81 1015.3
20260504191507 67 241 2.0 3.0 0.00 0.00 0.00 81 1015.2
20260504191007 66 241 0.0 4.0 0.00 0.00 0.00 82 1015.3
20260504190507 66 241 1.0 5.0 0.00 0.00 0.00 83 1015.4
20260504190117 65 241 2.0 5.0 0.00 0.00 0.00 83 1015.6
20260504185508 65 211 0.0 5.0 0.00 0.00 0.00 84 1015.6
20260504185010 65 207 1.0 7.0 0.00 0.00 0.00 84 1015.6
20260504184506 65 238 2.0 7.0 0.00 0.00 0.00 85 1015.7
20260504184007 64 242 3.0 6.0 0.00 0.00 0.00 85 1015.7
20260504183507 64 233 3.0 8.0 0.00 0.00 0.00 85 1015.7
20260504183006 64 261 3.0 7.0 0.00 0.00 0.00 84 1015.6
20260504182505 65 267 4.0 9.0 0.00 0.00 0.00 84 1015.5
20260504182005 65 238 5.0 9.0 0.00 0.00 0.00 82 1015.5
20260504181505 65 229 5.0 9.0 0.00 0.00 0.00 82 1015.5
20260504181005 65 261 4.0 10.0 0.00 0.00 0.00 82 1015.5
20260504180505 65 238 5.0 12.0 0.00 0.00 0.00 81 1015.3
20260504180003 66 288 7.0 12.0 0.00 0.00 0.00 80 1015.2
20260504175504 66 271 9.0 12.0 0.00 0.00 0.00 78 1015.2
20260504175003 67 279 6.0 10.0 0.00 0.00 0.00 77 1015.1
20260504174503 68 277 7.0 11.0 0.00 0.00 0.00 76 1014.9
20260504174003 68 279 7.0 11.0 0.00 0.00 0.00 75 1014.8
20260504173503 68 270 5.0 9.0 0.00 0.00 0.00 74 1014.8
20260504173003 68 215 4.0 9.0 0.00 0.00 0.00 73 1014.7
20260504172502 68 267 4.0 9.0 0.00 0.00 0.00 74 1014.8
20260504172002 68 296 3.0 7.0 0.00 0.00 0.00 73 1014.9
20260504171505 68 267 1.0 7.0 0.00 0.00 0.00 75 1014.9
20260504171001 68 244 2.0 8.0 0.00 0.00 0.00 77 1015.0
20260504170601 67 262 3.0 8.0 0.00 0.00 0.00 79 1015.1
20260504151051 67 266 6.0 12.0 0.00 0.00 0.00 73 1016.2
20260504150553 67 246 6.0 11.0 0.00 0.00 0.00 73 1016.1
20260504141048 70 338 5.0 11.0 0.00 0.00 0.00 70 1016.1
20260504140546 69 267 6.0 11.0 0.00 0.00 0.00 70 1016.1
20260504130538 65 216 3.0 13.0 0.00 0.00 0.00 85 1016.7
20260504110515 67 274 5.0 10.0 0.00 0.00 0.00 83 1016.9
20260504100600 65 257 5.0 9.0 0.00 0.00 0.00 83 1016.6
20260504100110 66 296 4.0 9.0 0.00 0.00 0.00 81 1016.5
20260504081535 61 262 1.0 3.0 0.00 0.00 0.00 89 1016.3
20260504081029 61 262 0.0 4.0 0.00 0.00 0.00 89 1016.4
20260504080529 60 262 1.0 6.0 0.00 0.00 0.00 88 1016.5
20260504050502 58 98 3.0 7.0 0.00 0.00 0.00 80 1016.6
20260504050001 58 102 4.0 7.0 0.00 0.00 0.00 81 1016.5
20260504045501 58 92 3.0 7.0 0.00 0.00 0.00 81 1016.4
20260504045001 58 109 4.0 7.0 0.00 0.00 0.00 81 1016.3
20260504044601 58 118 5.0 7.0 0.00 0.00 0.00 81 1016.4
20260504044100 58 117 4.0 7.0 0.00 0.00 0.00 81 1016.3
20260504043600 58 117 5.0 7.0 0.00 0.00 0.00 80 1016.3
20260504043115 58 108 2.0 6.0 0.00 0.00 0.00 81 1016.4
20260504042600 58 108 2.0 6.0 0.00 0.00 0.00 82 1016.5
20260504042059 58 114 4.0 7.0 0.00 0.00 0.00 83 1016.3
20260504041559 58 111 4.0 7.0 0.00 0.00 0.00 84 1016.3
20260504041059 58 97 3.0 6.0 0.00 0.00 0.00 84 1016.4
20260504040559 58 108 3.0 6.0 0.00 0.00 0.00 82 1016.4
20260504035601 59 41 1.0 3.0 0.00 0.00 0.00 79 1016.4
20260504035058 60 328 1.0 2.0 0.00 0.00 0.00 78 1016.4
20260504034557 60 328 0.0 9.0 0.00 0.00 0.00 78 1016.3
20260504034057 60 328 3.0 10.0 0.00 0.00 0.00 77 1016.3
20260504033558 60 117 7.0 10.0 0.00 0.00 0.00 78 1016.1
20260504033115 60 121 8.0 13.0 0.00 0.00 0.00 80 1016.1
20260504032559 59 115 10.0 15.0 0.00 0.00 0.00 83 1016.1
20260504032057 59 121 11.0 17.0 0.00 0.00 0.00 86 1016.1
20260504031603 58 126 11.0 16.0 0.00 0.00 0.00 88 1016.1
20260504031058 58 121 11.0 17.0 0.00 0.00 0.00 89 1016.2
20260504030554 58 125 12.0 15.0 0.00 0.00 0.00 90 1016.3
20260504030053 58 114 8.0 13.0 0.00 0.00 0.00 91 1016.3
20260504025552 59 150 4.0 8.0 0.00 0.00 0.00 91 1016.5
20260504025052 59 107 6.0 8.0 0.00 0.00 0.00 91 1016.8
20260504024559 59 92 3.0 5.0 0.00 0.00 0.00 90 1017.0
20260504024052 59 316 0.0 3.0 0.00 0.00 0.00 89 1017.2
20260504023556 59 316 0.0 3.0 0.00 0.00 0.00 88 1017.0
20260504023052 59 224 0.0 4.0 0.00 0.00 0.00 87 1017.1
20260504022551 59 205 2.0 5.0 0.00 0.00 0.00 86 1016.8
20260504022051 60 190 2.0 10.0 0.00 0.00 0.00 84 1016.7
20260504021554 60 173 5.0 10.0 0.00 0.00 0.00 80 1016.6
20260504021052 60 121 7.0 13.0 0.00 0.00 0.00 74 1016.4
20260504020548 60 110 9.0 13.0 0.00 0.00 0.00 75 1016.3
20260504020050 59 107 9.0 13.0 0.00 0.00 0.00 76 1016.3
20260504015547 59 95 9.0 14.0 0.00 0.00 0.00 77 1016.3
20260504015047 59 110 10.0 14.0 0.00 0.00 0.00 78 1016.4
20260504014546 59 126 9.0 12.0 0.00 0.00 0.00 79 1016.6
20260504014043 58 110 8.0 11.0 0.00 0.00 0.00 83 1016.8
20260504013542 58 94 5.0 7.0 0.00 0.00 0.00 83 1017.1
20260504013048 58 107 2.0 4.0 0.00 0.00 0.00 84 1017.4
20260504012544 59 122 3.0 4.0 0.00 0.00 0.00 85 1017.6
20260504012044 58 144 3.0 5.0 0.00 0.00 0.00 80 1017.7
20260504011542 59 173 2.0 4.0 0.00 0.00 0.00 79 1017.7
20260504011041 59 91 2.0 4.0 0.00 0.00 0.00 79 1017.6
20260504010540 59 113 2.0 8.0 0.00 0.00 0.00 80 1017.6
20260504010040 59 84 5.0 8.0 0.00 0.00 0.00 81 1017.4
20260504005540 59 103 4.0 7.0 0.00 0.00 0.00 83 1017.4
20260504005039 59 119 4.0 6.0 0.00 0.00 0.00 84 1017.3
20260504004548 59 65 3.0 4.0 0.00 0.00 0.00 81 1017.3
20260504004037 59 65 0.0 2.0 0.00 0.00 0.00 79 1017.5
20260504003539 59 65 0.0 2.0 0.00 0.00 0.00 79 1017.6
20260504003037 60 65 0.0 8.0 0.00 0.00 0.00 79 1017.6
20260504002537 60 88 2.0 9.0 0.00 0.00 0.00 79 1017.5
20260504002040 60 107 6.0 9.0 0.00 0.00 0.00 80 1017.5
20260504001537 59 138 6.0 9.0 0.00 0.00 0.00 82 1017.5
20260504001034 59 123 6.0 8.0 0.00 0.00 0.00 85 1017.6
20260504000533 59 120 5.0 7.0 0.00 0.00 0.00 88 1017.7
20260504000032 59 80 2.0 4.0 0.00 0.00 0.00 89 1017.8
20260503235531 59 80 3.0 4.0 0.00 0.00 0.00 89 1017.9
20260503235031 59 80 2.0 4.0 0.00 0.00 0.00 88 1018.0
20260503234531 59 80 2.0 4.0 0.00 0.00 0.00 88 1017.9
20260503234031 59 304 0.0 2.0 0.00 0.00 0.00 88 1018.1
20260503233529 60 304 0.0 2.0 0.00 0.00 0.00 88 1017.9
20260503233031 59 304 1.0 3.0 0.00 0.00 0.00 89 1017.8
20260503232530 59 304 1.0 3.0 0.00 0.00 0.00 89 1017.8
20260503232028 60 304 1.0 2.0 0.00 0.00 0.00 90 1017.7
20260503231528 60 304 0.0 3.0 0.00 0.00 0.00 90 1017.8
20260503231027 60 304 0.0 6.0 0.00 0.00 0.00 91 1017.8
20260503230526 59 100 3.0 7.0 0.00 0.00 0.00 92 1017.6
20260503230023 58 102 5.0 7.0 0.00 0.00 0.00 94 1017.6
20260503225522 59 108 0.0 2.0 0.00 0.00 0.00 94 1017.7
20260503225023 59 108 1.0 4.0 0.00 0.00 0.00 94 1017.7
20260503224523 59 108 1.0 4.0 0.00 0.00 0.00 94 1017.7
20260503224023 60 108 1.0 3.0 0.00 0.00 0.00 94 1017.7